time_stamp(utc),avg(mph),gust(mph),direction(deg),12m_air_temp(f),sonic_u(cm/s),sonic_v(cm/s),sonic_w(cm/s),pressure,2m_air_temp(f),pyranometer(W/m^2)
"2017-04-07 00:00:21+00",16.8,18.8,,55.8,-696,-177,17,991.53,54.5,0
"2017-04-07 00:05:21+00",16.5,18.5,,55.8,-702,-141,-44,991.57,54.4,0
"2017-04-07 00:10:21+00",14.1,16.1,,55.3,-598,-104,-35,991.67,54.1,0
"2017-04-07 00:15:21+00",15.1,16.1,,55.1,-645,-112,-42,991.68,53.9,0
"2017-04-07 00:20:21+00",16.4,17.4,,55.2,-714,-80,-21,991.73,53.9,0
"2017-04-07 00:25:21+00",15.4,17.4,,55.3,-659,-126,-6,991.85,54,0
"2017-04-07 00:30:21+00",14.8,16.8,,55,-628,-211,-21,991.99,53.8,0
"2017-04-07 00:35:21+00",14.8,16.8,,54.8,-667,-278,-11,992.12,53.6,0
"2017-04-07 00:40:21+00",13.7,14.7,,54.6,-609,-298,-12,992.32,53.4,0
"2017-04-07 00:45:21+00",14.0,15.0,,54.6,-622,-279,-27,992.45,53.2,0
"2017-04-07 00:50:21+00",13.5,15.5,,54.5,-604,-255,-29,992.43,53,0
"2017-04-07 00:55:21+00",12.6,13.6,,54.3,-538,-277,-26,992.47,52.8,0
"2017-04-07 01:00:21+00",12.4,14.4,,54.2,-550,-257,-15,992.68,52.7,0
"2017-04-07 01:05:21+00",11.9,13.9,,54.2,-518,-228,-29,992.72,52.6,0
"2017-04-07 01:10:21+00",11.5,13.5,,54.1,-505,-238,-41,992.8,52.4,0
"2017-04-07 01:15:21+00",11.5,13.5,,53.9,-512,-224,-28,992.9,52.3,0
"2017-04-07 01:20:21+00",12.3,15.3,,53.8,-511,-167,-32,992.88,52.2,0
"2017-04-07 01:25:21+00",13.9,14.9,,53.9,-589,-173,-28,992.92,52.2,0
"2017-04-07 01:30:21+00",13.2,14.2,,53.8,-535,-116,-45,992.86,52.2,0
"2017-04-07 01:35:21+00",11.9,12.9,,53.8,-505,-67,-23,992.71,52.2,0
"2017-04-07 01:40:21+00",11.0,13.0,,53.7,-487,-209,-40,992.87,52,0
"2017-04-07 01:45:21+00",14.6,15.6,,53.5,-451,-425,-44,993.06,51.8,0
"2017-04-07 01:50:21+00",14.6,16.6,,53.4,-539,-340,-71,993.15,51.7,0
"2017-04-07 01:55:21+00",12.9,14.9,,53.3,-526,-284,-43,993.16,51.6,0
"2017-04-07 02:00:21+00",13.8,15.8,,53.3,-561,-314,-29,993.22,51.6,0
"2017-04-07 02:05:21+00",15.3,16.3,,53.3,-537,-386,-34,993.23,51.6,0
"2017-04-07 02:10:21+00",15.8,16.8,,53.4,-546,-400,-39,993.26,51.6,0
"2017-04-07 02:15:21+00",13.5,14.5,,53.1,-417,-493,-39,993.41,51.7,0
"2017-04-07 02:20:21+00",15.8,17.8,,52.9,-469,-554,-34,993.51,51.7,0
"2017-04-07 02:25:21+00",13.3,16.3,,52.5,-441,-538,-75,993.53,51.6,0
"2017-04-07 02:30:21+00",18.5,21.5,,52.8,-609,-570,-36,993.49,51.7,0
"2017-04-07 02:35:21+00",14.3,18.3,,52.4,-440,-572,-46,993.48,51.6,0
"2017-04-07 02:40:21+00",14.6,17.6,,52,-517,-575,-22,993.55,51.4,0
"2017-04-07 02:45:21+00",16.7,20.7,,52.1,-516,-577,-7,993.62,51.4,0
"2017-04-07 02:50:21+00",16.2,21.2,,52.3,-511,-534,41,993.67,51.5,0
"2017-04-07 02:55:21+00",18.3,22.3,,52.5,-593,-558,8,993.68,51.6,0
"2017-04-07 03:00:21+00",17.2,19.2,,52.7,-543,-532,17,993.65,51.8,0
"2017-04-07 03:05:21+00",17.4,20.4,,52.8,-566,-524,17,993.58,52,0
"2017-04-07 03:10:21+00",19.2,22.2,,53,-651,-534,27,993.61,52.2,0
"2017-04-07 03:15:21+00",17.9,20.9,,53.1,-628,-475,51,993.55,52.3,0
"2017-04-07 03:20:21+00",19.6,23.6,,53.4,-681,-523,11,993.52,52.4,0
"2017-04-07 03:25:21+00",20.8,23.8,,53.6,-717,-551,23,993.52,52.7,0
"2017-04-07 03:30:21+00",20.7,23.7,,53.7,-764,-507,26,993.62,52.8,0
"2017-04-07 03:35:21+00",21.3,26.3,,53.8,-839,-489,21,993.57,52.9,0
"2017-04-07 03:40:21+00",25.6,29.6,,54.2,-927,-635,21,993.54,53.1,0
"2017-04-07 03:45:21+00",20.2,25.2,,53.9,-781,-481,41,993.51,53.1,0
"2017-04-07 03:50:21+00",20.1,23.1,,53.6,-855,-287,42,993.51,52.7,0
"2017-04-07 03:55:21+00",18.2,21.2,,53.5,-787,-231,50,993.5,52.6,0
"2017-04-07 04:00:21+00",17.5,20.5,,53.6,-733,-156,20,993.41,52.7,0
"2017-04-07 04:05:21+00",17.2,21.2,,53.7,-723,-147,14,993.34,52.7,0
"2017-04-07 04:10:21+00",14.1,16.1,,53.4,-610,-235,21,993.37,52.7,0
"2017-04-07 04:15:21+00",13.4,14.4,,53.2,-578,-282,28,993.33,52.5,0
"2017-04-07 04:20:21+00",12.7,15.7,,52.9,-537,-269,19,993.41,52.3,0
"2017-04-07 04:25:21+00",15.5,17.5,,52.9,-614,-357,28,993.46,52.2,0
"2017-04-07 04:30:21+00",14.8,16.8,,52.9,-619,-325,25,993.48,52.2,0
"2017-04-07 04:35:21+00",13.9,14.9,,52.8,-559,-312,22,993.59,52.1,0
"2017-04-07 04:40:21+00",15.7,18.7,,52.9,-587,-389,25,993.74,52,0
"2017-04-07 04:45:21+00",19.5,23.5,,53.1,-738,-463,28,993.77,52.1,0
"2017-04-07 04:50:21+00",19.5,21.5,,53.1,-834,-422,18,993.77,52.2,0
"2017-04-07 04:55:21+00",20.5,24.5,,53,-897,-356,13,993.75,52.1,0
"2017-04-07 05:00:21+00",22.2,25.2,,52.9,-945,-203,15,993.8,52.2,0
"2017-04-07 05:05:21+00",18.9,21.9,,52.5,-819,-151,71,993.81,52,0
"2017-04-07 05:10:21+00",24.6,27.6,,52.6,-1086,4,23,993.73,52,0
"2017-04-07 05:15:21+00",23.6,30.6,,52.4,-1068,-4,53,993.73,51.7,0
"2017-04-07 05:20:21+00",22.8,24.8,,52.2,-1003,13,37,993.74,51.7,0
"2017-04-07 05:25:21+00",23.3,27.3,,52.2,-1027,-56,61,993.74,51.7,0
"2017-04-07 05:30:21+00",23.7,29.7,,52.1,-1054,42,87,993.81,51.7,0
"2017-04-07 05:35:21+00",21.0,24.0,,51.8,-931,70,35,993.79,51.4,0
"2017-04-07 05:40:21+00",21.1,24.1,,51.9,-917,-56,50,993.73,51.3,0
"2017-04-07 05:45:21+00",20.7,25.7,,51.8,-910,-39,53,993.71,51.3,0
"2017-04-07 05:50:21+00",20.2,22.2,,51.8,-885,-70,57,993.76,51.2,0
"2017-04-07 05:55:21+00",18.9,20.9,,51.5,-827,-54,33,993.82,51,0
"2017-04-07 06:00:21+00",20.9,22.9,,51.6,-903,-95,22,993.86,50.9,0
"2017-04-07 06:05:21+00",17.4,21.4,,51.4,-754,-77,47,993.94,50.9,0
"2017-04-07 06:10:21+00",16.5,19.5,,51.3,-703,-102,42,993.96,50.8,0
"2017-04-07 06:15:21+00",21.4,23.4,,51.3,-935,-36,35,993.94,50.6,0
"2017-04-07 06:20:21+00",17.7,18.7,,51.1,-787,6,43,993.99,50.6,0
"2017-04-07 06:25:21+00",22.1,25.1,,51.1,-992,64,39,993.95,50.6,0
"2017-04-07 06:30:21+00",20.0,25.0,,51.3,-884,159,43,993.95,50.7,0
"2017-04-07 06:35:21+00",20.1,26.1,,51.1,-894,13,75,994.02,50.6,0
"2017-04-07 06:40:21+00",21.5,24.5,,51.2,-960,62,40,994.07,50.6,0
"2017-04-07 06:45:21+00",20.6,22.6,,51,-913,1,42,994.04,50.4,0
"2017-04-07 06:50:21+00",18.6,21.6,,50.8,-823,31,44,994.09,50.2,0
"2017-04-07 06:55:21+00",17.1,22.1,,50.6,-759,93,44,993.99,50.1,0
"2017-04-07 07:00:21+00",15.1,17.1,,50.5,-663,65,42,994.04,50,0
"2017-04-07 07:05:21+00",17.2,20.2,,50.2,-763,24,20,994.03,49.8,0
"2017-04-07 07:10:21+00",17.7,21.7,,50.2,-779,43,33,994.08,49.7,0
"2017-04-07 07:15:21+00",16.3,18.3,,50.1,-708,45,28,994.08,49.6,0
"2017-04-07 07:20:21+00",14.7,16.7,,50.1,-643,-11,41,994.17,49.5,0
"2017-04-07 07:25:21+00",17.0,19.0,,50,-757,29,38,994.16,49.4,0
"2017-04-07 07:30:21+00",11.8,13.8,,49.9,-513,31,25,994.12,49.3,0
"2017-04-07 07:35:21+00",12.4,13.4,,49.8,-549,17,31,994,49.3,0
"2017-04-07 07:40:21+00",12.5,14.5,,49.6,-540,-22,21,994.04,49.2,0
"2017-04-07 07:45:21+00",11.4,14.4,,49.5,-491,-56,16,993.85,49,0
"2017-04-07 07:50:21+00",15.1,17.1,,49.7,-638,-100,24,994.08,49,0
"2017-04-07 07:55:21+00",12.6,14.6,,49.6,-550,-35,42,994.17,49.1,0
"2017-04-07 08:00:21+00",12.0,14.0,,49.5,-537,-43,44,994.12,49,0
"2017-04-07 08:05:21+00",12.9,14.9,,49.5,-552,-79,14,994.1,49,0
"2017-04-07 08:10:21+00",12.3,14.3,,49.5,-534,-33,23,994.07,48.9,0
"2017-04-07 08:15:21+00",12.1,14.1,,49.3,-513,-60,13,993.98,48.8,0
"2017-04-07 08:20:21+00",12.1,13.1,,49.2,-508,-90,18,994.02,48.7,0
"2017-04-07 08:25:21+00",11.3,12.3,,49,-489,-41,13,994.03,48.6,0
"2017-04-07 08:30:21+00",10.1,12.1,,49,-445,9,21,993.97,48.5,0
"2017-04-07 08:35:21+00",12.1,14.1,,49,-527,-43,12,993.99,48.5,0
"2017-04-07 08:40:21+00",16.7,19.7,,48.9,-744,19,20,993.88,48.4,0
"2017-04-07 08:45:21+00",14.8,16.8,,48.6,-660,35,27,993.95,48.3,0
"2017-04-07 08:50:21+00",17.7,19.7,,48.6,-786,74,33,994,48.3,0
"2017-04-07 08:55:21+00",15.5,18.5,,48.4,-687,-3,48,994.06,48.2,0
"2017-04-07 09:00:21+00",14.3,16.3,,48.2,-624,-43,29,994.09,48,0
"2017-04-07 09:05:21+00",15.8,17.8,,48.3,-694,35,31,994.12,47.9,0
"2017-04-07 09:10:21+00",12.2,15.2,,48.1,-530,-14,34,994.2,47.9,0
"2017-04-07 09:15:21+00",11.5,13.5,,47.9,-496,-48,22,994.21,47.7,0
"2017-04-07 09:20:21+00",14.4,16.4,,47.9,-624,-50,27,994.24,47.5,0
"2017-04-07 09:25:21+00",14.5,17.5,,47.8,-611,-124,34,994.2,47.5,0
"2017-04-07 09:30:21+00",16.7,18.7,,47.8,-719,-90,29,994.21,47.4,0
"2017-04-07 09:35:21+00",15.8,17.8,,47.8,-678,-95,36,994.17,47.4,0
"2017-04-07 09:40:21+00",15.1,18.1,,47.7,-646,-50,49,994.17,47.4,0
"2017-04-07 09:45:21+00",17.3,19.3,,47.8,-733,-124,14,994.26,47.5,0
"2017-04-07 09:50:21+00",17.7,20.7,,47.7,-749,-159,19,994.32,47.5,0
"2017-04-07 09:55:21+00",16.4,17.4,,47.7,-696,-101,26,994.29,47.5,0
"2017-04-07 10:00:21+00",18.6,23.6,,47.8,-779,-154,37,994.37,47.5,0
"2017-04-07 10:05:21+00",19.2,22.2,,47.8,-817,-134,8,994.32,47.6,0
"2017-04-07 10:10:21+00",17.2,20.2,,47.8,-724,-137,27,994.36,47.6,0
"2017-04-07 10:15:21+00",15.0,18.0,,47.7,-648,-90,37,994.34,47.6,0
"2017-04-07 10:20:21+00",14.2,16.2,,47.7,-611,-82,37,994.38,47.5,0
"2017-04-07 10:25:21+00",18.0,19.0,,47.7,-765,-119,33,994.37,47.5,0
"2017-04-07 10:30:21+00",14.8,16.8,,47.7,-632,-93,26,994.41,47.5,0
"2017-04-07 10:35:21+00",13.3,16.3,,47.6,-566,-123,34,994.54,47.5,0
"2017-04-07 10:40:21+00",13.2,17.2,,47.6,-562,-142,37,994.68,47.5,0
"2017-04-07 10:45:21+00",14.8,16.8,,47.5,-622,-137,11,994.66,47.4,0
"2017-04-07 10:50:21+00",15.5,18.5,,47.6,-651,-128,14,994.72,47.3,0
"2017-04-07 10:55:21+00",10.3,12.3,,47.5,-439,-71,67,994.73,47.3,0
"2017-04-07 11:00:21+00",12.6,14.6,,47.4,-529,-104,31,994.76,47.3,0
"2017-04-07 11:05:21+00",13.2,16.2,,47.5,-572,-34,29,994.76,47.3,0
"2017-04-07 11:10:21+00",14.6,17.6,,47.4,-644,15,38,994.84,47.3,0
"2017-04-07 11:15:21+00",16.8,18.8,,47.4,-731,-47,20,994.72,47.3,0
"2017-04-07 11:20:21+00",16.6,18.6,,47.4,-743,40,31,994.89,47.3,0
"2017-04-07 11:25:21+00",13.5,15.5,,47.3,-588,-50,18,994.98,47.3,0
"2017-04-07 11:30:21+00",13.4,17.4,,47.2,-574,-98,20,995.05,47.2,0
"2017-04-07 11:35:21+00",12.9,14.9,,47.2,-549,-74,31,995.1,47.2,0
"2017-04-07 11:40:21+00",15.1,18.1,,47.2,-659,-68,47,995.2,47.2,0
"2017-04-07 11:45:21+00",15.8,17.8,,47.1,-698,3,38,995.26,47.1,0
"2017-04-07 11:50:21+00",17.3,18.3,,47,-770,40,31,995.35,47,0
"2017-04-07 11:55:21+00",17.9,19.9,,47,-801,28,31,995.39,46.9,0
"2017-04-07 12:00:21+00",14.3,16.3,,47,-619,-69,21,995.41,46.9,1.3
"2017-04-07 12:05:21+00",17.6,20.6,,47,-760,-91,9,995.52,46.9,0
"2017-04-07 12:10:21+00",19.1,21.1,,46.9,-807,-186,18,995.53,46.9,0.3
"2017-04-07 12:15:21+00",16.6,18.6,,46.9,-710,-73,38,995.6,46.8,0
"2017-04-07 12:20:21+00",17.4,20.4,,46.9,-754,-100,23,995.67,46.8,0.1
"2017-04-07 12:25:21+00",18.2,20.2,,46.8,-775,-164,21,995.67,46.8,0
"2017-04-07 12:30:21+00",15.7,18.7,,46.8,-658,-160,18,995.76,46.7,0
"2017-04-07 12:35:21+00",18.2,20.2,,46.8,-778,-243,25,995.77,46.7,1.5
"2017-04-07 12:40:21+00",19.9,22.9,,46.8,-851,-139,23,995.79,46.7,4.6
"2017-04-07 12:45:21+00",21.6,23.6,,46.7,-922,-166,34,995.65,46.6,14.4
"2017-04-07 12:50:21+00",21.1,24.1,,46.6,-911,-322,37,995.74,46.7,21.8
"2017-04-07 12:55:21+00",21.8,23.8,,46.6,-920,-179,31,995.7,46.7,32.6
"2017-04-07 13:00:21+00",18.7,21.7,,46.7,-784,-141,31,995.6,46.8,58
"2017-04-07 13:05:21+00",17.6,22.6,,46.7,-765,-92,61,995.57,47,62.5
"2017-04-07 13:10:21+00",20.8,22.8,,46.8,-879,-208,27,995.57,47,112.7
"2017-04-07 13:15:21+00",24.6,27.6,,46.9,-1087,-4,42,995.55,47.3,178.2
"2017-04-07 13:20:21+00",22.8,26.8,,46.9,-985,-148,44,995.53,47.3,92.1
"2017-04-07 13:25:21+00",22.4,24.4,,46.8,-994,62,52,995.56,47.2,76.8
"2017-04-07 13:30:21+00",21.0,25.0,,46.8,-930,98,70,995.62,47.1,64.8
"2017-04-07 13:35:21+00",22.7,28.7,,46.6,-1010,1,41,995.64,46.8,19.9
"2017-04-07 13:40:21+00",21.1,27.1,,46.5,-898,-212,70,995.73,46.6,9.2
"2017-04-07 13:45:21+00",25.8,30.8,,46.4,-1139,-36,61,995.76,46.5,17
"2017-04-07 13:50:21+00",25.7,32.7,,46.3,-1129,-84,46,995.86,46.4,43
"2017-04-07 13:55:21+00",23.3,28.3,,46.4,-1014,-99,53,995.87,46.5,55.5
"2017-04-07 14:00:21+00",26.4,28.4,,46.3,-1128,-129,52,995.8,46.5,54.9
"2017-04-07 14:05:21+00",21.3,24.3,,46.4,-930,-77,49,995.8,46.6,53.6
"2017-04-07 14:10:21+00",29.0,32.0,,46.2,-1270,-40,46,995.75,46.4,21.3
"2017-04-07 14:15:21+00",28.5,31.5,,45.7,-1272,105,75,995.81,46.1,39.7
"2017-04-07 14:20:21+00",25.1,30.1,,45.2,-1128,61,87,996,45.7,40.7
"2017-04-07 14:25:21+00",24.6,29.6,,44.9,-1074,-91,61,996.12,45.4,33.5
"2017-04-07 14:30:21+00",25.5,29.5,,44.6,-1128,49,70,996.33,45.2,42.6
"2017-04-07 14:35:21+00",24.2,27.2,,44.7,-1059,205,64,996.36,45.2,73
"2017-04-07 14:40:21+00",25.2,29.2,,44.7,-1126,69,83,996.4,45.3,83.7
"2017-04-07 14:45:21+00",24.1,29.1,,44.6,-1067,24,57,996.36,45.2,75
"2017-04-07 14:50:21+00",21.8,23.8,,44.6,-971,59,42,996.5,45.1,71.9
"2017-04-07 14:55:21+00",20.5,22.5,,44.6,-920,76,66,996.45,45.1,51.7
"2017-04-07 15:00:21+00",25.2,29.2,,44.3,-1118,-24,74,996.44,44.8,32.3
"2017-04-07 15:05:21+00",28.0,31.0,,44.2,-1225,287,80,996.49,44.7,36.7
"2017-04-07 15:10:21+00",22.4,26.4,,44.3,-999,130,83,996.69,44.7,42.6
"2017-04-07 15:15:21+00",23.6,27.6,,44.3,-1047,129,65,996.64,44.7,60.2
"2017-04-07 15:20:21+00",25.2,28.2,,44.4,-1119,74,54,996.68,44.8,76.8
"2017-04-07 15:25:21+00",21.5,25.5,,44.6,-954,21,65,996.68,45,80.1
"2017-04-07 15:30:21+00",25.4,28.4,,44.3,-1114,312,95,996.63,45,77
"2017-04-07 15:35:21+00",23.8,26.8,,44.4,-1063,32,65,996.74,45,100.5
"2017-04-07 15:40:21+00",20.7,23.7,,44.2,-916,-32,49,996.71,45,238.7
"2017-04-07 15:45:21+00",22.5,28.5,,44.9,-995,39,85,996.6,45.6,192.1
"2017-04-07 15:50:21+00",22.6,25.6,,45.1,-1001,-40,27,996.58,46.1,293
"2017-04-07 15:55:21+00",17.6,19.6,,45.3,-761,-26,51,996.64,46.4,231.3
"2017-04-07 16:00:21+00",21.5,24.5,,45.3,-911,-153,54,996.58,46.3,105.6
"2017-04-07 16:05:21+00",20.9,23.9,,45.4,-920,121,66,996.64,46.1,67.3
"2017-04-07 16:10:21+00",25.7,28.7,,45.6,-1127,149,58,996.49,46.1,61
"2017-04-07 16:15:21+00",19.6,25.6,,45.8,-852,12,65,996.64,46.1,31.3
"2017-04-07 16:20:21+00",20.5,23.5,,45.6,-915,38,67,996.59,46,40.9
"2017-04-07 16:25:21+00",24.9,27.9,,45.8,-1110,142,88,996.54,46.2,105.9
"2017-04-07 16:30:21+00",21.9,24.9,,46,-971,110,70,996.59,46.4,84.7
"2017-04-07 16:35:21+00",22.8,26.8,,46.2,-989,245,74,996.71,46.6,53.3
"2017-04-07 16:40:21+00",22.3,26.3,,46.3,-974,280,101,996.69,46.6,104
"2017-04-07 16:45:21+00",24.6,28.6,,46.5,-1076,305,76,996.6,46.9,108.9
"2017-04-07 16:50:21+00",22.5,24.5,,46.6,-972,315,102,996.66,47.1,71.5
"2017-04-07 16:55:21+00",25.8,29.8,,46.6,-1120,302,104,996.62,47,49.2
"2017-04-07 17:00:21+00",28.5,33.5,,46.6,-1253,173,65,996.62,46.8,22.9
"2017-04-07 17:05:21+00",25.7,29.7,,46.5,-1084,420,67,996.68,46.8,53.4
"2017-04-07 17:10:21+00",22.6,24.6,,46.6,-955,374,87,996.86,46.8,50.7
"2017-04-07 17:15:21+00",23.7,29.7,,46.6,-970,483,122,996.84,46.8,23.5
"2017-04-07 17:20:21+00",29.3,33.3,,45.8,-1117,694,92,996.95,46,11.8
"2017-04-07 17:25:21+00",34.2,37.2,,45.4,-1420,622,78,997.08,45.6,28.3
"2017-04-07 17:30:21+00",32.0,35.0,,45,-1293,628,81,997.34,45.3,80.6
"2017-04-07 17:35:21+00",28.8,33.8,,45,-1179,542,134,997.4,45.4,133.5
"2017-04-07 17:40:21+00",29.5,33.5,,44.6,-1192,607,86,997.4,45.1,110.6
"2017-04-07 17:45:21+00",22.8,26.8,,45,-967,382,102,997.56,45.4,119.1
"2017-04-07 17:50:21+00",26.0,29.0,,45.3,-1111,320,68,997.43,45.9,127.7
"2017-04-07 17:55:21+00",21.1,25.1,,45.3,-927,91,94,997.43,46,106
"2017-04-07 18:00:21+00",20.4,23.4,,45.5,-898,158,72,997.43,46.1,131
"2017-04-07 18:05:21+00",21.8,25.8,,45.7,-921,333,64,997.47,46.4,143.3
"2017-04-07 18:10:21+00",27.6,34.6,,45.9,-1153,483,62,997.27,46.8,181
"2017-04-07 18:15:21+00",25.4,29.4,,46.3,-1043,462,85,997.41,46.9,153.7
"2017-04-07 18:20:21+00",27.4,31.4,,46,-1111,560,99,997.43,46.8,138.4
"2017-04-07 18:25:21+00",31.1,36.1,,46.1,-1298,494,93,997.44,46.8,213.5
"2017-04-07 18:30:21+00",26.7,31.7,,46.1,-1184,189,73,997.53,47.2,281.5
"2017-04-07 18:35:21+00",25.5,28.5,,46.6,-1104,328,74,997.5,47.6,212.8
"2017-04-07 18:40:21+00",23.3,27.3,,46.5,-938,458,94,997.5,47.6,194.9
"2017-04-07 18:45:21+00",30.2,37.2,,46.6,-1294,430,94,997.49,47.6,186.8
"2017-04-07 18:50:21+00",25.8,29.8,,46.7,-1114,361,74,997.49,47.6,342.5
"2017-04-07 18:55:21+00",25.9,30.9,,46.9,-1152,191,87,997.52,47.8,146.7
"2017-04-07 19:00:21+00",27.2,30.2,,46.8,-1181,327,83,997.56,47.5,105.6
"2017-04-07 19:05:21+00",26.8,30.8,,46.8,-1143,401,94,997.62,47.4,84.6
"2017-04-07 19:10:21+00",21.3,24.3,,47,-920,275,121,997.81,47.5,84.5
"2017-04-07 19:15:21+00",24.3,30.3,,46.9,-1078,57,82,997.67,47.8,191.8
"2017-04-07 19:20:21+00",29.8,33.8,,46.5,-1329,9,54,997.69,47.3,58.5
"2017-04-07 19:25:21+00",29.6,32.6,,45.9,-1300,240,74,997.84,46.8,87.3
"2017-04-07 19:30:21+00",27.5,32.5,,46.1,-1147,481,84,997.96,46.7,104.9
"2017-04-07 19:35:21+00",25.6,30.6,,46.3,-1075,454,91,997.93,47,160.3
"2017-04-07 19:40:21+00",25.3,29.3,,46.5,-1091,361,91,997.98,47.2,121.1
"2017-04-07 19:45:21+00",23.5,25.5,,46.3,-1032,211,72,998.03,47.2,136
"2017-04-07 19:50:21+00",30.7,34.7,,46.4,-1342,319,88,997.95,47.3,156.2
"2017-04-07 19:55:21+00",26.2,29.2,,46.3,-1140,311,80,998.07,47.1,149.3
"2017-04-07 20:00:21+00",24.0,28.0,,46.3,-1048,295,106,998.14,47,74.1
"2017-04-07 20:05:21+00",31.0,36.0,,46.4,-1362,252,89,998.15,47,53.1
"2017-04-07 20:10:21+00",27.1,32.1,,46.2,-1187,263,97,998.29,46.7,36.4
"2017-04-07 20:15:21+00",31.1,35.1,,46,-1366,289,65,998.29,46.5,49.8
"2017-04-07 20:20:21+00",25.7,28.7,,46.2,-1132,276,83,998.3,46.7,85.6
"2017-04-07 20:25:21+00",26.5,30.5,,46.2,-1147,332,65,998.42,46.9,134.9
"2017-04-07 20:30:21+00",26.8,31.8,,46.5,-1176,283,99,998.33,47.3,164.8
"2017-04-07 20:35:21+00",26.5,32.5,,46.7,-1164,239,102,998.41,47.3,71.4
"2017-04-07 20:40:21+00",26.3,30.3,,46.8,-1157,280,75,998.44,47.2,92.7
"2017-04-07 20:45:21+00",27.5,30.5,,46.9,-1200,296,86,998.47,47.4,104.4
"2017-04-07 20:50:21+00",28.3,31.3,,46.9,-1202,438,90,998.51,47.5,79.3
"2017-04-07 20:55:21+00",24.3,28.3,,47.1,-1065,305,93,998.6,47.5,49.8
"2017-04-07 21:00:21+00",24.5,30.5,,47.2,-1067,309,119,998.71,47.5,47.8
"2017-04-07 21:05:21+00",27.5,31.5,,47.1,-1070,666,68,998.84,47.4,45.3
"2017-04-07 21:10:21+00",24.5,27.5,,47,-982,488,69,998.95,47.2,34.7
"2017-04-07 21:15:21+00",21.8,24.8,,47.2,-895,437,48,998.93,47.4,39.8
"2017-04-07 21:20:21+00",26.7,28.7,,47.3,-1150,379,71,999.03,47.5,43
"2017-04-07 21:25:21+00",31.7,36.7,,47.4,-1303,567,78,999.1,47.5,40.8
"2017-04-07 21:30:21+00",27.8,30.8,,47.4,-1201,367,131,999.26,47.7,61.6
"2017-04-07 21:35:21+00",22.4,25.4,,47.4,-955,327,94,999.31,47.7,28.9
"2017-04-07 21:40:21+00",29.6,33.6,,47.3,-1230,515,72,999.31,47.4,22.1
"2017-04-07 21:45:21+00",28.3,32.3,,47.5,-1199,436,72,999.36,47.6,12.4
"2017-04-07 21:50:21+00",24.8,27.8,,47.5,-1052,421,89,999.5,47.6,3
"2017-04-07 21:55:21+00",23.0,25.0,,47.5,-1007,316,94,999.62,47.6,0.1
"2017-04-07 22:00:21+00",22.4,27.4,,47.5,-997,171,100,999.64,47.6,3.5
"2017-04-07 22:05:21+00",26.6,29.6,,47.3,-1120,434,81,999.77,47.5,21.8
"2017-04-07 22:10:21+00",24.7,29.7,,47.3,-1035,434,82,999.85,47.4,14.3
"2017-04-07 22:15:21+00",29.4,33.4,,47.3,-1137,648,99,999.94,47.3,0
"2017-04-07 22:20:21+00",28.8,33.8,,47.1,-1206,500,103,1000.11,47.2,0
"2017-04-07 22:25:21+00",29.5,32.5,,46.9,-1149,669,100,1000.28,46.9,0
"2017-04-07 22:30:21+00",32.2,38.2,,46.9,-1264,729,111,1000.27,46.8,0
"2017-04-07 22:35:21+00",33.3,37.3,,46.6,-1356,639,105,1000.35,46.6,0
"2017-04-07 22:40:21+00",29.7,32.7,,46.6,-1146,685,79,1000.66,46.5,0
"2017-04-07 22:45:21+00",29.0,36.0,,46.5,-1114,670,80,1000.72,46.4,0
"2017-04-07 22:50:21+00",29.6,33.6,,46.6,-1206,581,84,1000.81,46.5,0
"2017-04-07 22:55:21+00",31.4,34.4,,45.8,-1243,689,55,1000.99,46,0
"2017-04-07 23:00:21+00",32.6,38.6,,45.5,-1216,827,88,1001.23,45.5,0
"2017-04-07 23:05:21+00",27.4,30.4,,45.4,-985,736,75,1001.37,45.4,0
"2017-04-07 23:10:21+00",25.9,29.9,,45.4,-968,649,80,1001.51,45.3,0
"2017-04-07 23:15:21+00",26.4,31.4,,45.5,-1037,585,76,1001.56,45.4,0
"2017-04-07 23:20:21+00",27.4,31.4,,45.4,-1109,548,87,1001.67,45.3,0
"2017-04-07 23:25:21+00",28.0,33.0,,45.3,-1028,743,89,1001.9,45.3,0
"2017-04-07 23:30:21+00",27.5,31.5,,44.9,-1060,658,113,1001.99,44.9,0
"2017-04-07 23:35:21+00",29.0,33.0,,44.8,-1116,688,72,1002.03,44.7,0
"2017-04-07 23:40:21+00",26.8,29.8,,44.7,-945,733,63,1002.21,44.6,0
"2017-04-07 23:45:21+00",22.3,26.3,,44.6,-852,523,74,1002.25,44.5,0
"2017-04-07 23:50:21+00",22.6,26.6,,44.5,-869,501,76,1002.44,44.4,0
"2017-04-07 23:55:21+00",21.5,23.5,,44.5,-835,510,70,1002.5,44.4,0
